Regional Weather Roundup
Issued by NWS

Home | Current Version | Previous Version | Text Only | Print | Product List | Glossary Off
Versions: 1 2 3 4 5 6 7 8 9 10 11 12 13 14 15 16 17 18 19 20 21 22 23 24 25 26 27 28 29 30 31 32 33 34 35 36 37 38 39 40 41 42 43 44 45 46 47 48 49 50

000
ASUS43 KLMK 240602
RWRKY
KENTUCKY REGIONAL WEATHER ROUNDUP
NATIONAL WEATHER SERVICE LOUISVILLE KY
200 AM EDT THU APR 24 2014

NOTE "FAIR" INDICATES FEW OR NO CLOUDS BELOW 12,000 FEET
WITH NO SIGNIFICANT WEATHER AND/OR OBSTRUCTIONS TO VISIBILITY.

KYZ001>023-026-027-061>063-070>075-240700-
WESTERN AND SOUTH CENTRAL KENTUCKY

CITY           SKY/WX    TMP DP  RH WIND       PRES   REMARKS
PADUCAH        FAIR      50  39  66 E6        29.97S
HENDERSON      FAIR      52  36  54 E5        30.01S
OWENSBORO      FAIR      51  35  54 SE7       30.02S
HOPKINSVILLE   FAIR      52  35  51 E6        29.99S
BOWLING GREEN  FAIR      48  35  60 NE3       30.02S
GLASGOW        NOT AVBL
$$

KYZ024-025-028>034-038-045-046-053-240700-
NORTH CENTRAL KENTUCKY

CITY           SKY/WX    TMP DP  RH WIND       PRES   REMARKS
LOUISVILLE/SDF MOCLDY    55  32  41 E7        30.03F
LOUISVILLE/LOU FAIR      57  32  38 E5        30.04F
FORT KNOX      FAIR      51  33  50 E6        30.02S
$$

KYZ035>037-039>044-047>052-055>060-089>105-240700-
NORTHEAST KENTUCKY

CITY           SKY/WX    TMP DP  RH WIND       PRES   REMARKS
LEXINGTON      FAIR      50  33  52 E10       30.04F
COVINGTON      CLOUDY    52  34  50 E13       30.06F
FRANKFORT      FAIR      48  34  58 NE3       30.04S
$$

KYZ054-064>069-076>088-106>120-240700-
SOUTHEAST KENTUCKY

CITY           SKY/WX    TMP DP  RH WIND       PRES   REMARKS
JACKSON        FAIR      49  30  48 CALM      30.05F
LONDON         FAIR      50  31  48 CALM      30.04F
SOMERSET       NOT AVBL
MIDDLESBORO    FAIR      41  36  81 CALM      30.04F
MONTICELLO     FAIR      38  35  89 CALM      30.05F
$$




USA.gov is the U.S. government's official web portal to all federal, state and local government web resources and services.